User: anonymous   Login
Location: Lecco
(45.8566°N, 9.3977°E)
Time: 16:58:13
(UTC+02:00)
Language:

Envisat - Orbit

View from above orbital plane
View from above orbital plane
View from above satellite
View from above satellite

Ground track
Ground track

The orbit data is extracted from the following two-line orbital elements,

1 27386U 02009A   21129.26383191  .00000011  00000-0  17175-4 0  9992
2 27386  98.1482 125.3242 0001322  85.6737 284.8193 14.38024542  5376
Epoch (UTC): 09 May 2021 06:19:55
Eccentricity: 0.0001322
inclination: 98.1482°
perigee height: 764 km
apogee height: 766 km
right ascension of ascending node: 125.3242°
argument of perigee: 85.6737°
revolutions per day: 14.38024542
mean anomaly at epoch: 284.8193°
orbit number at epoch: 537

The dashed part of the orbit path shows where the satellite is in the earth's shadow,  

DLR